York, NE

2:15 AM CDT on October 15, 2019 (GMT -0500)
York Municipal

Weather History for KJYR - August, 2019

Change the Weather History Date:

Friday, August 30, 2019

  Actual Average Record
Temperature  
Mean Temperature 65 °F -  
Max Temperature 71 °F 85 °F 102 °F (1948)
Min Temperature 59 °F 62 °F 50 °F (1986)
Growing Degree Days 15 (Base 50)    
Moisture  
Dew Point 60 °F    
Average Humidity 83    
Maximum Humidity 94    
Minimum Humidity 68    
Precipitation  
Precipitation 0.02 in - - ()
Sea Level Pressure  
Sea Level Pressure 30.15 in    
Wind  
Wind Speed 9 mph (ENE)    
Max Wind Speed 16 mph    
Max Gust Speed 22 mph    
Visibility 10 miles    
Events Rain , Thunderstorm    
Averages and records for this station are not official NWS values.
T = Trace of Precipitation, MM = Missing Value Source: NWS Daily Summary

Daily Weather History Graph

Daily Weather History Graph

Search for Another Location

Airport or City:

Astronomy

Aug. 30, 2019 Rise Set
Actual Time 6:55 AM CDT 8:06 PM CDT
Civil Twilight 6:26 AM CDT 8:34 PM CDT
Nautical Twilight 5:52 AM CDT 9:08 PM CDT
Astronomical Twilight 5:17 AM CDT 9:43 PM CDT
Moon 6:57 AM CDT (8/30) 8:43 PM CDT (8/30)
Length of Visible Light 14h 07m
Length of Day
13h 11m
New Moon, 0% of the Moon is Illuminated
Aug 30
New Moon
Sep 5
First Quarter
Sep 13
Full
Sep 21
Last Quarter
Sep 28
New

Hourly Weather History & Observations

Time (CDT) Temp. Dew Point Humidity Pressure Visibility Wind Dir Wind Speed Gust Speed Precip Events Conditions
12:00 AM 64.4 °F 55.4 °F 73% 30.01 in 10.0 mi NNE 10.4 mph - N/A   Overcast
12:15 AM 64.4 °F 55.4 °F 73% 30.02 in 10.0 mi NE 10.4 mph - N/A   Overcast
12:40 AM 64.4 °F 55.4 °F 73% 30.04 in 10.0 mi NNE 10.4 mph - N/A   Overcast
12:55 AM 64.4 °F 55.4 °F 73% 30.05 in 10.0 mi ENE 10.4 mph - N/A   Overcast
1:15 AM 64.4 °F 55.4 °F 73% 30.08 in 10.0 mi ENE 10.4 mph - N/A   Overcast
1:35 AM 64.4 °F 55.4 °F 73% 30.12 in 10.0 mi East 9.2 mph - N/A   Overcast
1:55 AM 64.4 °F 53.6 °F 68% 30.12 in 10.0 mi East 16.1 mph 21.9 mph N/A   Overcast
2:15 AM 64.4 °F 53.6 °F 68% 30.13 in 10.0 mi ENE 10.4 mph - N/A Thunderstorm Overcast
2:35 AM 62.6 °F 55.4 °F 77% 30.10 in 10.0 mi ENE 6.9 mph - N/A Thunderstorm Overcast
2:55 AM 62.6 °F 55.4 °F 77% 30.10 in 10.0 mi NNE 11.5 mph - N/A Thunderstorm Mostly Cloudy
3:15 AM 62.6 °F 57.2 °F 82% 30.10 in 10.0 mi NNE 12.7 mph - N/A Thunderstorm Mostly Cloudy
3:35 AM 62.6 °F 55.4 °F 77% 30.09 in 10.0 mi NE 10.4 mph - N/A   Overcast
3:55 AM 60.8 °F 57.2 °F 88% 30.10 in 7.0 mi NE 10.4 mph - 0.01 in Rain Light Rain
4:15 AM 59.0 °F 57.2 °F 94% 30.10 in 10.0 mi NNE 8.1 mph - 0.01 in Rain Light Rain
4:35 AM 59.0 °F 57.2 °F 94% 30.11 in 10.0 mi NE 8.1 mph - 0.01 in   Scattered Clouds
4:55 AM 59.0 °F 57.2 °F 94% 30.12 in 10.0 mi NE 8.1 mph - 0.01 in   Overcast
5:15 AM 59.0 °F 57.2 °F 94% 30.12 in 10.0 mi NE 8.1 mph - N/A   Overcast
5:35 AM 59.0 °F 57.2 °F 94% 30.13 in 10.0 mi NE 8.1 mph - N/A   Overcast
5:55 AM 59.0 °F 57.2 °F 94% 30.14 in 10.0 mi NE 8.1 mph - N/A   Overcast
6:15 AM 59.0 °F 57.2 °F 94% 30.14 in 10.0 mi NNE 10.4 mph - N/A   Overcast
6:35 AM 59.0 °F 57.2 °F 94% 30.15 in 10.0 mi NE 10.4 mph - N/A   Overcast
7:00 AM 59.0 °F 57.2 °F 94% 30.15 in 10.0 mi NE 10.4 mph - N/A   Overcast
7:15 AM 59.0 °F 55.4 °F 88% 30.15 in 10.0 mi NE 10.4 mph - N/A   Mostly Cloudy
7:35 AM 59.0 °F 55.4 °F 88% 30.15 in 10.0 mi NE 9.2 mph - N/A   Partly Cloudy
8:00 AM 59.0 °F 55.4 °F 88% 30.17 in 10.0 mi ENE 8.1 mph - N/A   Mostly Cloudy
8:15 AM 59.0 °F 55.4 °F 88% 30.18 in 10.0 mi NE 9.2 mph - N/A   Overcast
8:35 AM 59.0 °F 57.2 °F 94% 30.18 in 10.0 mi ENE 9.2 mph - N/A   Overcast
9:00 AM 60.8 °F 57.2 °F 88% 30.18 in 10.0 mi ENE 8.1 mph - N/A   Overcast
9:15 AM 60.8 °F 57.2 °F 88% 30.18 in 10.0 mi ENE 8.1 mph - N/A   Overcast
9:35 AM 62.6 °F 57.2 °F 82% 30.18 in 10.0 mi East 10.4 mph - N/A   Overcast
9:55 AM 62.6 °F 57.2 °F 82% 30.18 in 10.0 mi East 12.7 mph - N/A   Overcast
10:15 AM 64.4 °F 59.0 °F 83% 30.19 in 10.0 mi ENE 10.4 mph - N/A   Overcast
10:35 AM 64.4 °F 59.0 °F 83% 30.19 in 10.0 mi ENE 12.7 mph - N/A   Overcast
10:55 AM 64.4 °F 59.0 °F 83% 30.20 in 10.0 mi East 12.7 mph - N/A   Overcast
11:15 AM 66.2 °F 59.0 °F 78% 30.20 in 10.0 mi East 10.4 mph - N/A   Overcast
11:35 AM 66.2 °F 60.8 °F 83% 30.20 in 10.0 mi East 10.4 mph - N/A   Overcast
11:55 AM 68.0 °F 60.8 °F 78% 30.20 in 10.0 mi ESE 10.4 mph - N/A   Overcast
12:15 PM 68.0 °F 60.8 °F 78% 30.19 in 10.0 mi ENE 10.4 mph - N/A   Overcast
12:35 PM 68.0 °F 62.6 °F 83% 30.19 in 10.0 mi East 9.2 mph - N/A   Mostly Cloudy
12:55 PM 69.8 °F 62.6 °F 78% 30.18 in 10.0 mi East 10.4 mph 16.1 mph N/A   Mostly Cloudy
1:15 PM 71.6 °F 62.6 °F 73% 30.18 in 10.0 mi ESE 6.9 mph - N/A   Overcast
1:35 PM 71.6 °F 62.6 °F 73% 30.18 in 10.0 mi East 8.1 mph - N/A   Overcast
1:55 PM 69.8 °F 62.6 °F 78% 30.19 in 10.0 mi East 6.9 mph - N/A   Overcast
2:15 PM 69.8 °F 62.6 °F 78% 30.19 in 10.0 mi East 4.6 mph - N/A   Overcast
2:35 PM 69.8 °F 62.6 °F 78% 30.19 in 10.0 mi East 6.9 mph - N/A   Overcast
2:55 PM 69.8 °F 62.6 °F 78% 30.19 in 10.0 mi ESE 8.1 mph - N/A   Overcast
3:15 PM 71.6 °F 62.6 °F 73% 30.18 in 10.0 mi East 10.4 mph - N/A   Overcast
3:30 PM 71.6 °F 64.4 °F 78% 30.17 in 10.0 mi East 10.4 mph - N/A   Unknown
3:50 PM 71.6 °F 62.6 °F 73% 30.18 in 10.0 mi ESE 8.1 mph - N/A   Overcast
4:10 PM 69.8 °F 62.6 °F 78% 30.17 in 10.0 mi East 9.2 mph - N/A   Overcast
4:35 PM 71.6 °F 62.6 °F 73% 30.16 in 10.0 mi ENE 10.4 mph - N/A   Mostly Cloudy
4:50 PM 71.6 °F 64.4 °F 78% 30.16 in 10.0 mi ENE 10.4 mph - N/A   Partly Cloudy
5:10 PM 71.6 °F 62.6 °F 73% 30.17 in 10.0 mi ENE 8.1 mph - N/A   Partly Cloudy
5:30 PM 69.8 °F 62.6 °F 78% 30.17 in 10.0 mi ENE 9.2 mph - N/A   Mostly Cloudy
5:50 PM 69.8 °F 62.6 °F 78% 30.17 in 10.0 mi East 9.2 mph - N/A   Overcast
6:10 PM 68.0 °F 62.6 °F 83% 30.16 in 10.0 mi East 8.1 mph - N/A   Overcast
6:30 PM 69.8 °F 62.6 °F 78% 30.16 in 10.0 mi East 6.9 mph - N/A   Overcast
6:50 PM 68.0 °F 62.6 °F 83% 30.15 in 10.0 mi East 9.2 mph - N/A   Overcast
7:10 PM 68.0 °F 62.6 °F 83% 30.15 in 10.0 mi ESE 9.2 mph - N/A   Overcast
7:30 PM 68.0 °F 62.6 °F 83% 30.14 in 10.0 mi ESE 8.1 mph - N/A   Overcast
7:50 PM 68.0 °F 62.6 °F 83% 30.14 in 10.0 mi ESE 8.1 mph - N/A   Overcast
8:10 PM 68.0 °F 62.6 °F 83% 30.14 in 10.0 mi ESE 9.2 mph - N/A   Overcast
8:30 PM 68.0 °F 62.6 °F 83% 30.16 in 10.0 mi East 5.8 mph - N/A   Overcast
8:50 PM 66.2 °F 62.6 °F 88% 30.17 in 10.0 mi ESE 5.8 mph - N/A   Overcast
9:10 PM 66.2 °F 62.6 °F 88% 30.18 in 10.0 mi East 3.5 mph - N/A   Overcast
9:30 PM 66.2 °F 62.6 °F 88% 30.19 in 10.0 mi Calm Calm - N/A   Overcast
9:50 PM 64.4 °F 62.6 °F 94% 30.20 in 10.0 mi ENE 5.8 mph - N/A   Overcast
10:10 PM 64.4 °F 62.6 °F 94% 30.20 in 10.0 mi East 4.6 mph - N/A   Overcast
10:30 PM 64.4 °F 62.6 °F 94% 30.20 in 10.0 mi East 5.8 mph - N/A   Overcast
10:50 PM 64.4 °F 62.6 °F 94% 30.20 in 10.0 mi ESE 5.8 mph - N/A   Overcast
11:10 PM 64.4 °F 62.6 °F 94% 30.18 in 10.0 mi SE 8.1 mph - N/A   Overcast
11:30 PM 66.2 °F 62.6 °F 88% 30.19 in 10.0 mi SE 9.2 mph - N/A   Overcast
11:50 PM 64.4 °F 62.6 °F 94% 30.18 in 10.0 mi SE 8.1 mph - N/A   Overcast